20130411,65
20130412,65
20130415,100
20130416,101
20130417,107
20130418,112
20130419,112
20130422,113
20130423,117
20130424,119
20130425,120
20130426,120
20130430,123
20130501,124
20130502,123
20130507,125
20130508,125
20130509,126
20130510,127
20130513,127
20130514,127
20130515,129
20130516,130
20130517,144
20130520,145
20130521,145
20130522,145
20130523,144
20130524,169
20130527,169
20130528,180
20130529,181
20130530,181
20130531,193
20130603,201
20130604,203
20130605,203
20130606,201
20130607,202
20130610,205
20130611,207
20130612,205
20130613,204
20130614,206
20130617,205
20130618,207
20130619,209
20130620,206
20130621,203
20130624,208
20130625,212
20130626,214
20130627,217
20130628,230
20130701,229
20130702,230
20130703,230
20130704,230
20130705,230
20130708,232
20130709,234
20130710,235
20130711,235
20130712,238
20130716,239
20130717,238
20130718,243
20130719,244
20130722,245
20130723,249
20130724,249
20130725,248
20130726,248
20130729,261
20130730,264
20130731,263
20130801,264
20130802,267
20130805,267
20130806,266
20130807,265
20130808,264
20130809,265
20130812,265
20130813,264
20130814,265
20130815,271
20130816,267
20130819,275
20130820,274
20130821,275
20130822,273
20130823,275
20130826,263
20130827,269
20130828,265
20130829,270
20130830,277
20130902,288
20130903,288
20130904,289
20130905,291
20130906,291
20130909,291
20130910,294
20130911,296
20130912,297
20130913,296
20130917,299
20130918,301
20130919,303
20130920,304
20130924,300
20130925,299
20130926,274
20130927,276
20130930,275
20131001,265
20131002,267
20131003,266
20131004,264
20131007,266
20131008,264
20131009,261
20131010,261
20131011,266
20131015,269
20131016,267
20131017,270
20131018,273
20131021,273
20131022,274
20131023,276
20131024,274
20131025,275
20131028,276
20131029,265
20131030,232
20131031,217
20131101,223
20131105,224
20131106,224
20131107,225
20131108,222
20131111,225
20131112,225
20131113,224
20131114,226
20131115,227
20131118,228
20131119,228
20131120,227
20131121,227
20131122,229
20131125,230
20131126,219
20131127,219
20131128,223
20131129,234
20131202,233
20131203,233
20131204,232
20131205,231
20131206,230
20131209,233
20131210,233
20131211,232
20131212,229
20131213,229
20131216,229
20131217,230
20131218,229
20131219,233
20131220,232
20131224,234
20131225,238
20131226,238
20131227,239
20131230,239
20140106,244
20140107,243
20140108,245
20140109,244
20140110,246
20140114,243
20140115,245
20140116,246
20140117,247
20140120,246
20140121,246
20140122,246
20140123,247
20140124,245
20140127,240
20140128,234
20140129,236
20140130,234
20140131,236
20140203,234
20140204,229
20140205,231
20140206,231
20140207,234
20140210,236
20140212,239
20140213,239
20140214,240
20140217,242
20140218,242
20140219,242
20140220,240
20140221,241
20140224,241
20140225,242
20140226,240
20140227,240
20140228,246
20140303,247
20140304,245
20140305,249
20140306,249
20140307,249
20140310,250
20140311,250
20140312,249
20140313,249
20140314,247
20140317,247
20140318,249
20140319,250
20140320,249
20140324,245
20140325,244
20140326,245
20140327,244
20140328,244
20140331,240
20140401,215
20140402,216
20140403,217
20140404,216
20140407,214
20140408,212
20140409,212
20140410,214
20140411,210
20140414,208
20140415,210
20140416,211
20140417,213
20140418,214
20140421,209
20140422,210
20140423,211
20140424,211
20140425,209
20140428,207
20140430,209
20140501,209
20140502,209
20140507,208
20140508,209
20140509,209
20140512,209
20140513,211
20140514,211
20140515,210
20140516,208
20140519,209
20140520,209
20140521,206
20140522,208
20140523,209
20140526,199
20140527,200
20140528,200
20140529,205
20140530,186
20140602,186
20140603,186
20140604,186
20140605,187
20140606,188
20140609,188
20140610,189
20140611,189
20140612,188
20140613,187
20140616,188
20140617,188
20140618,182
20140619,184
20140620,184
20140623,185
20140624,184
20140625,183
20140626,184
20140627,184
20140630,184
20140701,184
20140702,185
20140703,187
20140704,188
20140707,188
20140708,188
20140709,187
20140710,187
20140711,186
20140714,187
20140715,187
20140716,186
20140717,187
20140718,185
20140722,186
20140723,187
20140724,187
20140725,187
20140728,186
20140729,186
20140730,185
20140731,198
20140801,194
20140804,194
20140805,195
20140806,193
20140807,193
20140808,193
20140811,195
20140812,195
20140813,195
20140814,196
20140815,197
20140818,197
20140819,199
20140820,200
20140821,200
20140822,201
20140825,201
20140826,196
20140827,196
20140828,191
20140829,191
20140901,175
20140902,174
20140903,174
20140904,174
20140905,174
20140908,175
20140909,174
20140910,173
20140911,174
20140912,174
20140916,173
20140917,174
20140918,175
20140919,176
20140922,176
20140924,173
20140925,174
20140926,172
20140929,166
20140930,165
20141001,160
20141002,156
20141003,157
20141006,158
20141007,158
20141008,156
20141009,159
20141010,155
20141014,151
20141015,151
20141016,150
20141017,150
20141020,152
20141021,153
20141022,156
20141023,155
20141024,157
20141027,158
20141028,158
20141029,160
20141030,160
20141031,156
20141104,158
20141105,157
20141106,159
20141107,159
20141110,159
20141111,160
20141112,160
20141113,160
20141114,160
20141117,159
20141118,160
20141119,160
20141120,160
20141121,160
20141125,147
20141126,140
20141127,140
20141128,140
20141201,140
20141202,139
20141203,140
20141204,141
20141205,141
20141208,141
20141209,140
20141210,140
20141211,138
20141212,139
20141215,136
20141216,136
20141217,136
20141218,138
20141219,141
20141222,141
20141224,143
20141225,142
20141226,137
20141229,138
20141230,138
20150105,136
20150106,133
20150107,132
20150108,134
20150109,136
20150113,134
20150114,133
20150115,133
20150116,132
20150119,135
20150120,135
20150121,135
20150122,136
20150123,138
20150126,136
20150127,137
20150128,136
20150129,134
20150130,135
20150202,133
20150203,134
20150204,136
20150205,136
20150206,137
20150209,136
20150210,136
20150212,137
20150213,138
20150216,139
20150217,139
20150218,139
20150219,139
20150220,138
20150223,139
20150224,139
20150225,140
20150226,138
20150227,138
20150302,137
20150303,138
20150304,137
20150305,136
20150306,137
20150309,135
20150310,136
20150311,133
20150312,126
20150313,128
20150316,127
20150317,129
20150318,128
20150319,130
20150320,129
20150323,130
20150324,130
20150325,129
20150326,127
20150327,124
20150330,120
20150331,122
20150401,121
20150402,121
20150403,121
20150406,121
20150407,122
20150408,121
20150409,121
20150410,122
20150413,122
20150414,122
20150415,122
20150416,122
20150417,122
20150420,121
20150421,122
20150422,121
20150423,122
20150424,122
20150427,122
20150428,121
20150430,119
20150501,118
20150507,118
20150508,118
20150511,120
20150512,119
20150513,119
20150514,119
20150515,120
20150518,120
20150519,120
20150520,120
20150521,114
20150522,115
20150525,114
20150526,114
20150527,113
20150528,114
20150529,114
20150601,113
20150602,113
20150603,113
20150604,113
20150605,112
20150608,112
20150609,112
20150610,112
20150611,113
20150612,113
20150615,113
20150616,112
20150617,113
20150618,113
20150619,114
20150622,113
20150623,112
20150624,112
20150625,111
20150626,110
20150629,111
20150630,106
20150701,106
20150702,107
20150703,107
20150706,107
20150707,107
20150708,107
20150709,106
20150710,106
20150713,107
20150714,108
20150715,108
20150716,108
20150717,109
20150721,109
20150722,108
20150723,108
20150724,107
20150727,106
20150728,105
20150729,107
20150730,108
20150731,108
20150803,107
20150804,107
20150805,107
20150806,107
20150807,106
20150810,106
20150811,107
20150812,106
20150813,107
20150814,107
20150817,107
20150818,107
20150819,107
20150820,106
20150821,104
20150824,101
20150825,97
20150826,96
20150827,99
20150828,101
20150831,101
20150901,101
20150902,98
20150903,99
20150904,100
20150907,98
20150908,98
20150909,101
20150910,99
20150911,100
20150914,100
20150915,100
20150916,101
20150917,102
20150918,101
20150924,99
20150925,99
20150928,99
20150929,97
20150930,97
20151001,99
20151002,98
20151005,100
20151006,101
20151007,101
20151008,102
20151009,103
20151013,103
20151014,102
20151015,102
20151016,103
20151019,103
20151020,103
20151021,103
20151022,103
20151023,87
20151026,87
20151027,87
20151028,87
20151029,88
20151030,77
20151102,77
20151104,78
20151105,77
20151106,77
20151109,77
20151110,76
20151111,77
20151112,77
20151113,75
20151116,75
20151117,76
20151118,76
20151119,77
20151120,77
20151124,77
20151125,77
20151126,77
20151127,77
20151130,77
20151201,77
20151202,78
20151203,77
20151204,75
20151207,77
20151208,76
20151209,76
20151210,75
20151211,75
20151214,74
20151215,74
20151216,75
20151217,76
20151218,75
20151221,74
20151222,74
20151224,76
20151225,76
20151228,75
20151229,75
20151230,76
20160104,71
20160105,70
20160106,70
20160107,70
20160108,68
20160112,67
20160113,68
20160114,67
20160115,68
20160118,66
20160119,66
20160120,66
20160121,65
20160122,66
20160125,67
20160126,66
20160127,67
20160128,67
20160129,67
20160201,69
20160202,68
20160203,67
20160204,68
20160205,68
20160208,67
20160209,66
20160210,67
20160212,66
20160215,67
20160216,67
20160217,68
20160218,69
20160219,69
20160222,69
20160223,70
20160224,69
20160225,69
20160226,70
20160229,70
20160301,69
20160302,70
20160303,71
20160304,71
20160307,71
20160308,68
20160309,67
20160310,67
20160311,68
20160314,69
20160315,68
20160316,68
20160317,68
20160318,74
20160322,74
20160323,74
20160324,74
20160325,73
20160328,73
20160329,73
20160330,74
20160331,74
20160401,74
20160404,74
20160405,74
20160406,74
20160407,74
20160408,73
20160411,74
20160412,74
20160413,74
20160414,75
20160415,75
20160418,75
20160419,75
20160420,76
20160421,75
20160422,75
20160425,75
20160426,78
20160427,78
20160428,79
20160502,73
20160506,73
20160509,73
20160510,73
20160511,74
20160512,73
20160513,74
20160516,73
20160517,73
20160518,73
20160519,92
20160520,91
20160523,92
20160524,87
20160525,88
20160526,89
20160527,89
20160530,89
20160531,89
20160601,89
20160602,89
20160603,89
20160606,89
20160607,89
20160608,90
20160609,90
20160610,90
20160613,89
20160614,88
20160615,88
20160616,87
20160617,88
20160620,87
20160621,88
20160622,88
20160623,88
20160624,89
20160627,87
20160628,86
20160629,87
20160630,88
20160701,90
20160704,90
20160705,90
20160706,89
20160707,90
20160708,89
20160711,91
20160712,91
20160713,92
20160714,92
20160715,91
20160719,95
20160720,95
20160721,95
20160722,95
20160725,98
20160726,97
20160727,97
20160728,97
20160729,101
20160801,108
20160802,108
20160803,107
20160804,107
20160805,107
20160808,108
20160809,108
20160810,108
20160812,108
20160815,108
20160816,109
20160817,108
20160818,114
20160819,114
20160822,114
20160823,115
20160824,116
20160825,115
20160826,113
20160829,116
20160830,117
20160831,117
20160901,117
20160902,117
20160905,117
20160906,117
20160907,117
20160908,117
20160909,117
20160912,114
20160913,116
20160914,114
20160915,114
20160916,115
20160920,114
20160921,114
20160923,116
20160926,115
20160927,114
20160928,115
20160929,118
20160930,117
20161003,118
20161004,117
20161005,116
20161006,117
20161007,117
20161011,117
20161012,115
20161013,116
20161014,115
20161017,115
20161018,115
20161019,115
20161020,115
20161021,115
20161024,113
20161025,113
20161026,113
20161027,114
20161028,114
20161031,136
20161101,135
20161102,134
20161104,133
20161107,133
20161108,135
20161109,136
20161110,138
20161111,139
20161114,149
20161115,152
20161116,164
20161117,169
20161118,179
20161121,200
20161122,223
20161124,259
20161125,273
20161128,263
20161129,387
20161130,436
20161201,587
20161202,587
20161205,588
20161206,591
20161207,594
20161208,602
20161209,605
20161212,609
20161213,609
20161214,613
20161215,610
20161216,614
20161219,613
20161220,614
20161221,627
20161222,625
20161226,624
20161227,667
20161228,668
20161229,687
20161230,691
20170104,708
20170105,712
20170106,708
20170110,707
20170111,707
20170112,710
20170113,716
20170116,719
20170117,727
20170118,723
20170119,736
20170120,731
20170123,734
20170124,733
20170125,748
20170126,781
20170127,781
20170130,817
20170131,822
20170201,858
20170202,856
20170203,857
20170206,863
20170207,861
20170208,860
20170209,860
20170210,865
20170213,869
20170214,879
20170215,884
20170216,916
20170217,914
20170220,956
20170221,961
20170222,966
20170223,1010
20170224,1017
20170227,954
20170228,987
20170301,1007
20170302,1026
20170303,1019
20170306,1027
20170307,1029
20170308,1029
20170309,1040
20170310,1041
20170313,1050
20170314,1046
20170315,1053
20170316,1064
20170317,1062
20170321,1086
20170322,1073
20170323,1084
20170324,1091
20170327,1101
20170328,1101
20170329,1117
20170330,1117
20170331,1122
20170403,1127
20170404,1122
20170405,1120
20170406,1116
20170407,1119
20170410,1118
20170411,1118
20170412,1118
20170413,1113
20170414,1104
20170417,1074
20170418,1083
20170419,1066
20170420,1063
20170421,1070
20170424,1072
20170425,1063
20170426,1058
20170427,1026
20170428,1025
20170501,1020
20170502,1020
20170508,1025
20170509,1025
20170510,1033
20170511,1036
20170512,1034
20170515,1035
20170516,1043
20170517,1048
20170518,1031
20170519,1035
20170522,1042
20170523,1046
20170524,1059
20170525,1061
20170526,1071
20170529,1069
20170530,1069
20170531,1067
20170601,1060
20170602,1068
20170605,1067
20170606,1064
20170607,1070
20170608,1070
20170609,1071
20170612,1078
20170613,1080
20170614,1084
20170615,1084
20170616,1083
20170619,1085
20170620,1091
20170621,1083
20170622,1076
20170623,1074
20170626,1076
20170627,1077
20170628,1071
20170629,1080
20170630,1074
20170703,1075
20170704,1083
20170705,1083
20170706,1080
20170707,1069
20170710,1075
20170711,1074
20170712,1070
20170713,1076
20170714,1079
20170718,1081
20170719,1079
20170720,1083
20170721,1081
20170724,1080
20170725,1077
20170726,1084
20170727,1081
20170728,1082
20170731,1081
20170801,1082
20170802,1085
20170803,1085
20170804,1083
20170807,1095
20170808,1095
20170809,1093
20170810,1094
20170814,1080
20170815,1090
20170816,1089
20170817,1090
20170818,1071
20170821,1069
20170822,1070
20170823,1078
20170824,1075
20170825,1073
20170828,1077
20170829,1070
20170830,1069
20170831,1067
20170901,1070
20170904,1071
20170905,1071
20170906,1062
20170907,1066
20170908,1060
20170911,1062
20170912,1075
20170913,1079
20170914,1080
20170915,1081
20170919,1088
20170920,1091
20170921,1093
20170922,1091
20170925,1093
20170926,1096
20170927,1095
20170928,1099
20170929,1096
20171002,1061
20171003,1065
20171004,1066
20171005,1067
20171006,1073
20171010,1071
20171011,1074
20171012,1076
20171013,1076
20171016,1076
20171017,1080
20171018,1077
20171019,1077
20171020,1079
20171023,1087
20171024,1085
20171025,1088
20171026,1083
20171027,1088
20171030,1087
20171031,1081
20171101,1080
20171102,1082
20171106,1090
20171107,1088
20171108,1086
20171109,1087
20171110,1082
20171113,1082
20171114,1083
20171115,1083
20171116,1079
20171117,1083
20171120,1066
20171121,1066
20171122,1072
20171124,1070
20171127,1021
20171128,1019
20171129,1014
20171130,1001
20171201,1006
20171204,1005
20171205,1010
20171206,1004
20171207,1003
20171208,1002
20171211,1007
20171212,1009
20171213,1011
20171214,1008
20171215,981
20171218,989
20171219,984
20171220,983
20171221,983
20171222,982
20171225,982
20171226,1001
20171227,1001
20171228,1002
20171229,1003
20180104,1004
20180105,1010
20180109,989
20180110,954
20180111,956
20180112,930
20180115,936
20180116,936
20180117,933
20180118,944
20180119,943
20180122,947
20180123,955
20180124,955
20180125,954
20180126,952
20180129,962
20180130,956
20180131,946
20180201,935
20180202,937
20180205,919
20180206,882
20180207,893
20180208,888
20180209,856
20180213,878
20180214,880
20180215,891
20180216,899
20180219,898
20180220,898
20180221,892
20180222,886
20180223,886
20180226,848
20180227,857
20180228,843
20180301,807
20180302,798
20180305,801
20180306,809
20180307,810
20180308,809
20180309,813
20180312,826
20180313,823
20180314,819
20180315,812
20180316,813
20180319,813
20180320,804
20180322,804
20180323,784
20180326,758
20180327,778
20180328,768
20180329,768
20180330,777
20180402,778
20180403,762
20180404,773
20180405,777
20180406,782
20180409,765
20180410,768
20180411,780
20180412,775
20180413,781
20180416,767
20180417,772
20180418,775
20180419,762
20180420,757
20180423,752
20180424,753
20180425,746
20180426,748
20180427,752
20180501,747
20180502,747
20180507,746
20180508,747
20180509,748
20180510,757
20180511,763
20180514,765
20180515,760
20180516,755
20180517,755
20180518,756
20180521,733
20180522,739
20180523,737
20180524,738
20180525,736
20180528,733
20180529,732
20180530,721
20180531,724
20180601,721
20180604,727
20180605,730
20180606,728
20180607,736
20180608,737
20180611,739
20180612,737
20180613,732
20180614,728
20180615,727
20180618,721
20180619,718
20180620,715
20180621,709
20180622,705
20180625,708
20180626,702
20180627,683
20180628,678
20180629,681
20180702,682
20180703,682
20180704,680
20180705,679
20180706,684
20180709,687
20180710,694
20180711,696
20180712,691
20180713,674
20180717,673
20180718,676
20180719,678
20180720,675
20180723,676
20180724,677
20180725,680
20180726,673
20180727,634
20180730,606
20180731,606
20180801,609
20180802,607
20180803,607
20180806,611
20180807,612
20180808,604
20180809,603
20180810,625
20180813,620
20180814,617
20180815,621
20180816,618
20180817,625
20180820,628
20180821,629
20180822,630
20180823,628
20180824,626
20180827,620
20180828,625
20180829,625
20180830,628
20180831,625
20180903,625
20180904,625
20180905,624
20180906,617
20180907,615
20180910,613
20180911,614
20180912,615
20180913,614
20180914,617
20180918,607
20180919,609
20180920,611
20180921,606
20180925,597
20180926,595
20180927,591
20180928,591
20181001,593
20181002,596
20181003,596
20181004,595
20181005,595
20181009,595
20181010,593
20181011,578
20181012,563
20181015,567
20181016,564
20181017,572
20181018,573
20181019,567
20181022,568
20181023,563
20181024,560
20181025,547
20181026,553
20181029,548
20181030,549
20181031,550
20181101,552
20181102,556
20181105,554
20181106,560
20181107,564
20181108,563
20181109,563
20181112,561
20181113,553
20181114,552
20181115,549
20181116,555
20181119,555
20181120,552
20181121,543
20181122,543
20181126,539
20181127,545
20181128,546
20181129,554
20181130,554
20181203,559
20181204,562
20181205,547
20181206,546
20181207,543
20181210,534
20181211,533
20181212,531
20181213,532
20181214,532
20181217,523
20181218,514
20181219,512
20181220,506
20181221,500
20181225,480
20181226,480
20181227,499
20181228,505
20190104,497
20190107,510
20190108,511
20190109,515
20190110,517
20190111,518
20190115,516
20190116,519
20190117,522
20190118,527
20190121,534
20190122,534
20190123,527
20190124,528
20190125,528
20190128,531
20190129,528
20190130,530
20190131,528
20190201,522
20190204,524
20190205,527
20190206,527
20190207,527
20190208,524
20190212,524
20190213,530
20190214,532
20190215,530
20190218,537
20190219,536
20190220,537
20190221,539
20190222,538
20190225,540
20190226,540
20190227,539
20190228,540
20190301,540
20190304,543
20190305,541
20190306,541
20190307,538
20190308,534
20190311,532
20190312,538
20190313,539
20190314,542
20190315,532
20190318,533
20190319,536
20190320,533
20190322,533
20190325,524
20190326,524
20190327,527
20190328,525
20190329,520
20190401,523
20190402,528
20190403,525
20190404,525
20190405,526
20190408,528
20190409,529
20190410,525
20190411,526
20190412,518
20190415,521
20190416,520
20190417,521
20190418,518
20190419,518
20190422,518
20190423,517
20190424,521
20190425,515
20190426,514
20190507,518
20190508,510
20190509,509
20190510,509
20190513,512
20190514,501
20190515,505
20190516,506
20190517,510
20190520,507
20190521,506
20190522,509
20190523,509
20190524,503
20190527,505
20190528,505
20190529,499
20190530,484
20190531,478
20190603,466
20190604,457
20190605,465
20190606,464
20190607,466
20190610,469
20190611,470
20190612,465
20190613,465
20190614,465
20190617,465
20190618,463
20190619,468
20190620,460
20190621,464
20190624,463
20190625,463
20190626,460
20190627,439
20190628,440
20190701,431
20190702,435
20190703,435
20190704,439
20190705,439
20190708,438
20190709,435
20190710,433
20190711,431
20190712,431
20190716,433
20190717,428
20190718,429
20190719,432
20190722,427
20190723,425
20190724,431
20190725,433
20190726,432
20190729,434
20190730,434
20190731,428
20190801,423
20190802,418
20190805,416
20190806,404
20190807,409
20190808,409
20190809,416
20190813,408
20190814,413
20190815,402
20190816,403
20190819,409
20190820,413
20190821,410
20190822,412
20190823,412
20190826,402
20190827,404
20190828,402
20190829,405
20190830,409
20190902,410
20190903,409
20190904,407
20190905,411
20190906,415
20190909,416
20190910,416
20190911,409
20190912,411
20190913,412
20190917,411
20190918,412
20190919,410
20190920,409
20190924,408
20190925,406
20190926,407
20190927,402
20190930,401
20191001,403
20191002,397
20191003,390
20191004,392
20191007,398
20191008,396
20191009,389
20191010,393
20191011,394
20191015,398
20191016,400
20191017,393
20191018,388
20191021,388
20191023,389
20191024,389
20191025,388
20191028,389
20191029,391
20191030,392
20191031,393
20191101,391
20191105,395
20191106,395
20191107,396
20191108,398
20191111,398
20191112,397
20191113,396
20191114,397
20191115,397
20191118,399
20191119,398
20191120,401
20191121,400
20191122,399
20191125,400
20191126,376
20191127,379
20191128,376
20191129,374
20191202,373
20191203,371
20191204,368
20191205,372
20191206,373
20191209,376
20191210,376
20191211,376
20191212,376
20191213,381
20191216,381
20191217,382
20191218,383
20191219,382
20191220,383
20191223,385
20191224,385
20191225,386
20191226,386
20191227,388
20191230,388
20200106,386
20200107,386
20200108,384
20200109,385
20200110,388
20200114,388
20200115,388
20200116,388
20200117,391
20200120,392
20200121,392
20200122,390
20200123,391
20200124,390
20200127,386
20200128,381
20200129,383
20200130,383
20200131,386
20200203,379
20200204,380
20200205,384
20200206,391
20200207,391
20200210,388
20200212,391
20200213,392
20200214,392
20200217,392
20200218,392
20200219,390
20200220,390
20200221,390
20200225,378
20200226,366
20200227,364
20200228,348
20200302,342
20200303,357
20200304,348
20200305,362
20200306,350
20200309,345
20200310,320
20200311,332
20200312,317
20200313,288
20200316,312
20200317,273
20200318,291
20200319,269
20200323,258
20200324,246
20200325,271
20200326,277
20200327,296
20200330,287
20200331,297
20200401,291
20200402,277
20200403,285
20200406,281
20200407,299
20200408,299
20200409,311
20200410,317
20200413,317
20200414,310
20200415,316
20200416,307
20200417,307
20200420,318
20200421,312
20200422,303
20200423,308
20200424,308
20200427,312
20200428,319
20200430,325
20200501,319
20200507,308
20200508,312
20200511,318
20200512,315
20200513,309
20200514,303
20200515,307
20200518,307
20200519,319
20200520,314
20200521,312
20200522,310
20200525,310
20200526,310
20200527,317
20200528,324
20200529,323
20200601,323
20200602,324
20200603,327
20200604,334
20200605,335
20200608,345
20200609,349
20200610,344
20200611,336
20200612,316
20200615,320
20200616,322
20200617,329
20200618,326
20200619,325
20200622,322
20200623,318
20200624,319
20200625,310
20200626,314
20200629,307
20200630,312
20200701,316
20200702,315
20200703,317
20200706,316
20200707,320
20200708,314
20200709,316
20200710,311
20200713,316
20200714,316
20200715,321
20200716,325
20200717,325
20200720,327
20200721,325
20200722,326
20200727,325
20200728,326
20200729,325
20200730,328
20200731,325
20200803,325
20200804,326
20200805,327
20200806,329
20200807,329
20200811,336
20200812,336
20200813,339
20200814,337
20200817,338
20200818,338
20200819,337
20200820,335
20200821,333
20200824,333
20200825,338
20200826,340
20200827,339
20200828,342
20200831,344
20200901,341
20200902,342
20200903,347
20200904,339
20200907,338
20200908,338
20200909,331
20200910,336
20200911,331
20200914,333
20200915,338
20200916,338
20200917,339
20200918,338
20200923,328
20200924,322
20200925,323
20200928,327
20200929,332
20200930,329
20201001,332
20201002,332
20201005,333
20201006,338
20201007,334
20201008,335
20201009,339
20201012,340
20201013,343
20201014,340
20201015,337
20201016,338
20201019,339
20201020,333
20201021,334
20201022,333
20201023,336
20201026,337
20201027,330
20201028,326
20201029,317